Weather History for Winfield, KS

Change the Weather History Date:

Monday, January 7, 2013

  Actual Average Record
Temperature  
Mean Temperature 40 °F -  
Max Temperature 52 °F 42 °F 72 °F (2006)
Min Temperature 27 °F 23 °F 8 °F (2002)
Degree Days  
Heating Degree Days 26    
Moisture  
Dew Point 23 °F    
Average Humidity 58    
Maximum Humidity 72    
Minimum Humidity 35    
Precipitation  
Precipitation 0.00 in - - ()
Sea Level Pressure  
Sea Level Pressure 30.20 in    
Wind  
Wind Speed 11 mph (South)    
Max Wind Speed 21 mph    
Max Gust Speed 28 mph    
Visibility 10 miles    
Events      
Averages and records for this station are not official NWS values.
T = Trace of Precipitation, MM = Missing Value Source: NWS Daily Summary

Daily Weather History Graph

Daily Weather History Graph

Search for Another Location

Airport:

Trip Planner

Search our weather history database for the weather conditions in past years. The results will help you decide how hot, cold, wet, or windy it might be!

Date:

Astronomy

Jan. 07, 2013 Rise Set
Actual Time 7:42 AM CST 5:27 PM CST
Civil Twilight 7:13 AM CST 5:55 PM CST
Nautical Twilight 6:41 AM CST 6:28 PM CST
Astronomical Twilight 6:09 AM CST 6:59 PM CST
Moon 3:08 AM CST (1/7) 1:38 PM CST (1/7)
Length of Visible Light 10h 42m
Length of Day
9h 44m
Waning Crescent, 22% of the Moon is Illuminated
Jan 7
Waning Crescent
Jan 11
New
Jan 18
First Quarter
Jan 26
Full
Feb 3
Last Quarter

Hourly Weather History & Observations

Time (CST) Temp. Windchill Dew Point Humidity Pressure Visibility Wind Dir Wind Speed Gust Speed Precip Events Conditions
12:54 AM 30.0 °F 21.7 °F 21.9 °F 72% 30.31 in 10.0 mi SSE 9.2 mph - N/A   Clear
1:54 AM 28.9 °F 21.1 °F 21.0 °F 72% 30.29 in 10.0 mi SSE 8.1 mph - N/A   Clear
2:54 AM 30.0 °F 21.1 °F 21.0 °F 69% 30.29 in 10.0 mi South 10.4 mph - N/A   Clear
3:54 AM 30.0 °F 21.7 °F 19.9 °F 66% 30.28 in 10.0 mi South 9.2 mph - N/A   Clear
4:54 AM 27.0 °F 18.7 °F 19.0 °F 72% 30.27 in 10.0 mi SSE 8.1 mph - N/A   Clear
5:54 AM 27.0 °F 21.6 °F 19.0 °F 72% 30.26 in 10.0 mi South 4.6 mph - N/A   Clear
6:54 AM 28.0 °F 19.3 °F 19.9 °F 72% 30.27 in 10.0 mi SSE 9.2 mph - N/A   Clear
7:54 AM 30.0 °F 20.5 °F 21.0 °F 69% 30.27 in 10.0 mi SSE 11.5 mph - N/A   Clear
8:54 AM 34.0 °F 25.0 °F 21.9 °F 61% 30.27 in 10.0 mi South 12.7 mph - N/A   Clear
9:54 AM 39.0 °F 29.9 °F 23.0 °F 53% 30.27 in 10.0 mi South 17.3 mph - N/A   Clear
10:54 AM 42.1 °F 34.2 °F 23.0 °F 47% 30.26 in 10.0 mi South 16.1 mph 26.5 mph N/A   Clear
11:54 AM 46.0 °F 38.3 °F 24.1 °F 42% 30.22 in 10.0 mi SSW 20.7 mph 27.6 mph N/A   Clear
1:54 PM 51.1 °F - 25.0 °F 36% 30.14 in 10.0 mi SSW 16.1 mph - N/A   Clear
2:54 PM 52.0 °F - 25.0 °F 35% 30.13 in 10.0 mi SSW 16.1 mph - N/A   Clear
3:54 PM 51.1 °F - 24.1 °F 35% 30.12 in 10.0 mi SSW 19.6 mph 24.2 mph N/A   Clear
5:54 PM 46.9 °F - 25.0 °F 42% 30.11 in 10.0 mi South 15.0 mph - N/A   Clear
6:54 PM 43.0 °F 37.2 °F 25.0 °F 49% 30.11 in 10.0 mi South 10.4 mph - N/A   Clear
7:54 PM 39.9 °F 35.8 °F 24.1 °F 53% 30.11 in 10.0 mi SSE 5.8 mph - N/A   Clear
8:54 PM 39.0 °F 31.8 °F 26.1 °F 60% 30.09 in 10.0 mi South 11.5 mph - N/A   Clear
9:54 PM 37.9 °F 30.5 °F 26.1 °F 62% 30.08 in 10.0 mi South 11.5 mph - N/A   Clear
10:54 PM 39.0 °F 31.4 °F 27.0 °F 62% 30.08 in 10.0 mi South 12.7 mph - N/A   Clear
11:54 PM 39.0 °F 31.8 °F 28.9 °F 67% 30.07 in 10.0 mi South 11.5 mph - N/A   Clear